[[{"header":{"parameterUnit":"m.s-1","parameterCategory":1,"la1":30.2991,"la2":30.254,"lo1":-89.0895,"lo2":-89.0444,"dy":0.0017,"dx":0.0017,"nx":28,"ny":28,"refTime":"2025-09-04T21:00:00:Z","depth":0,"parameterNumber":2,"parameterNumberName":"U-component_of_WINDS"},"data":[0,0,0,0,0,0,0,0,0,0,0,0,0,0,0,0,0,0,0,0,0,0,0,0,0,0,0,0,0,0,0,0,0,0,0,0,0,0,0,0,0,0,0,0,0,0,0,0,0,0,0,0,0,0,0,0,0,0,-1.2507,-1.2506,0,-1.2456,-1.2456,-1.2455,-1.2419,-1.2419,-1.2418,-1.2418,-1.2363,-1.2362,-1.2361,0,0,0,0,0,0,0,0,0,0,0,0,0,-1.2572,-1.2571,-1.2507,-1.2506,-1.2506,-1.2456,-1.2456,-1.2455,-1.2419,-1.2419,-1.2418,-1.2418,-1.2364,-1.2362,-1.2361,0,0,0,0,0,0,0,0,0,0,0,0,0,-1.2535,-1.257,-1.2507,-1.2482,-1.2479,-1.2456,-1.2456,-1.2455,-1.2419,-1.2419,-1.2418,-1.2418,-1.2364,-1.2362,-1.2361,-1.2358,0,0,-1.2355,-1.2354,0,0,0,0,0,0,0,0,-1.2537,-1.2532,-1.2486,-1.2484,-1.2481,-1.2444,-1.2458,-1.2422,-1.2419,-1.2442,-1.2418,-1.2418,-1.239,-1.2386,-1.2377,-1.2355,-1.2353,-1.2355,-1.2354,-1.2353,-1.2353,0,0,0,0,0,0,0,-1.2539,-1.2534,-1.2487,-1.2486,-1.2482,-1.2473,-1.2467,-1.2451,-1.2419,-1.244,-1.2437,-1.2432,-1.2388,-1.2379,-1.2376,-1.2352,-1.2355,-1.2353,-1.2352,-1.2352,-1.2327,-1.2327,0,0,0,0,0,0,-1.2546,-1.2537,-1.2488,-1.2485,-1.2508,-1.2472,-1.2466,-1.2456,-1.2419,-1.2413,-1.2432,-1.243,-1.2383,-1.2378,-1.2374,-1.2369,-1.2353,-1.2351,-1.235,-1.2326,-1.2327,-1.2327,0,0,0,0,0,0,-1.2548,-1.2542,-1.249,-1.251,-1.2503,-1.2471,-1.2461,-1.2455,-1.2446,-1.2413,-1.2407,-1.2429,-1.2382,-1.2376,-1.2363,-1.2366,-1.2351,-1.2349,-1.2326,-1.2326,-1.2327,-1.2359,0,0,0,0,0,0,-1.255,-1.2543,-1.2542,-1.251,-1.2502,-1.2481,-1.2461,-1.2454,-1.2443,-1.244,-1.2408,-1.2403,-1.2381,-1.2366,-1.2361,-1.2364,-1.2348,-1.2325,-1.2326,-1.2327,-1.2357,-1.236,-1.2363,0,0,0,0,0,-1.2552,-1.2552,-1.2542,-1.2536,-1.25,-1.2481,-1.2476,-1.2452,-1.2444,-1.2442,-1.2421,-1.2404,-1.2367,-1.2364,-1.2359,-1.2361,-1.2325,-1.2326,-1.2327,-1.2356,-1.236,-1.2363,0,0,0,0,0,0,-1.2583,-1.2547,-1.2536,-1.2525,-1.2507,-1.2475,-1.2472,-1.2457,-1.2439,-1.2437,-1.2407,-1.2401,-1.239,-1.2374,-1.2372,-1.2357,-1.2344,-1.2344,-1.2368,-1.2371,-1.2374,-1.2378,-1.2346,0,0,0,0,0,-1.2589,-1.2577,-1.2546,-1.254,-1.2531,-1.2504,-1.2494,-1.2478,-1.2457,-1.2448,-1.2426,-1.2406,-1.239,-1.238,-1.2363,-1.2355,-1.2348,-1.2354,-1.2357,-1.236,-1.236,-1.2355,-1.2358,-1.233,-1.233,-1.233,0,0,-1.26,-1.2579,-1.2573,-1.2546,-1.2529,-1.2517,-1.2497,-1.2485,-1.2475,-1.2446,-1.2432,-1.2416,-1.2391,-1.238,-1.2375,-1.2367,-1.2366,-1.2361,-1.2363,-1.2362,-1.2356,-1.2359,-1.2361,-1.2331,-1.2331,-1.2331,0,0,-1.2614,-1.2598,-1.2591,-1.2576,-1.2551,-1.2533,-1.2532,-1.2503,-1.2491,-1.2477,-1.2455,-1.2444,-1.2417,-1.24,-1.2388,-1.24,-1.2383,-1.2395,-1.241,-1.2406,-1.2408,-1.241,-1.2414,-1.2416,-1.2395,-1.2395,-1.2395,0,-1.2631,-1.2613,-1.2589,-1.2579,-1.2568,-1.2542,-1.2536,-1.2521,-1.2493,-1.2485,-1.2478,-1.2444,-1.2426,-1.2412,-1.2415,-1.2406,-1.2403,-1.2398,-1.241,-1.2411,-1.2413,-1.2416,-1.2418,-1.2397,-1.2397,-1.2397,-1.2396,0,-1.2635,-1.2623,-1.262,-1.2595,-1.2583,-1.2575,-1.255,-1.2541,-1.2526,-1.2509,-1.2496,-1.2473,-1.2452,-1.2448,-1.2432,-1.2432,-1.2428,-1.2416,-1.2401,-1.2417,-1.242,-1.2421,-1.2399,-1.2399,-1.2398,-1.2398,0,0,-1.2665,-1.2629,-1.2628,-1.2617,-1.259,-1.2579,-1.257,-1.2551,-1.2544,-1.2526,-1.2517,-1.2496,-1.2485,-1.2472,-1.2455,-1.2451,-1.2462,-1.2439,-1.2438,-1.2444,-1.246,-1.247,-1.2472,-1.2452,-1.2452,-1.2452,-1.2463,0,-1.2675,-1.2658,-1.2638,-1.2627,-1.2616,-1.2593,-1.2585,-1.2567,-1.2551,-1.2539,-1.2521,-1.2507,-1.2493,-1.2486,-1.2481,-1.2462,-1.2465,-1.2461,-1.2443,-1.2442,-1.2449,-1.2473,-1.2482,-1.2493,-1.2463,-1.2464,-1.2464,0,-1.2684,-1.2669,-1.2658,-1.2633,-1.2627,-1.262,-1.2602,-1.2591,-1.257,-1.2559,-1.2546,-1.2528,-1.2517,-1.2506,-1.2491,-1.2488,-1.248,-1.247,-1.247,-1.2466,-1.2453,-1.247,-1.2496,-1.2498,-1.2465,-1.2465,-1.2465,0,-1.2708,-1.2684,-1.2674,-1.2666,-1.2636,-1.2632,-1.262,-1.2599,-1.2589,-1.2573,-1.2567,-1.2549,-1.2539,-1.2526,-1.2504,-1.2498,-1.2492,-1.2478,-1.2482,-1.2483,-1.2481,-1.2481,-1.2505,-1.2476,-1.2476,-1.2476,-1.2476,0,-1.2721,-1.2715,-1.2685,-1.2679,-1.2672,-1.2649,-1.2642,-1.2628,-1.261,-1.2601,-1.258,-1.2572,-1.2544,-1.2532,-1.2515,-1.2506,-1.2501,-1.2492,-1.2487,-1.2493,-1.2495,-1.2487,-1.2485,-1.2477,-1.2477,-1.2477,-1.2477,0,-1.2745,-1.2725,-1.2713,-1.2687,-1.268,-1.2676,-1.2654,-1.2647,-1.2632,-1.262,-1.2616,-1.2591,-1.2576,-1.2554,-1.2532,-1.2521,-1.2514,-1.2507,-1.2521,-1.2518,-1.2524,-1.2523,-1.2544,-1.2545,-1.2516,-1.2516,-1.2516,0,-1.2754,-1.2749,-1.2724,-1.2716,-1.2705,-1.2694,-1.2684,-1.2662,-1.2653,-1.2631,-1.2627,-1.2611,-1.2597,-1.2576,-1.2555,-1.2539,-1.2531,-1.2539,-1.2528,-1.2535,-1.2531,-1.2531,-1.2531,-1.2541,-1.2541,-1.2542,-1.2542,0,-1.2773,-1.2764,-1.2751,-1.2736,-1.2725,-1.2712,-1.2697,-1.2692,-1.2667,-1.2658,-1.2643,-1.2633,-1.2612,-1.2597,-1.2578,-1.2565,-1.2549,-1.2546,-1.2546,-1.2552,-1.2561,-1.2556,-1.2528,-1.2545,-1.2545,-1.2545,-1.2545,-1.2544,-1.2789,-1.2785,-1.2766,-1.2753,-1.2741,-1.2728,-1.2721,-1.2705,-1.2693,-1.2675,-1.2662,-1.2649,-1.263,-1.2604,-1.2592,-1.2581,-1.2574,-1.2574,-1.2574,-1.2574,-1.2577,-1.2563,-1.2578,-1.2578,-1.2577,-1.2577,-1.2577,0,-1.2807,-1.2795,-1.2783,-1.2764,-1.2754,-1.2742,-1.2726,-1.2718,-1.2707,-1.2692,-1.2679,-1.2663,-1.2649,-1.2628,-1.2612,-1.2608,-1.26,-1.2604,-1.2604,-1.2601,-1.2584,-1.2585,-1.2611,-1.2611,-1.2611,-1.2611,-1.2611,-1.2611,-1.2815,-1.2806,-1.2795,-1.278,-1.2768,-1.2755,-1.2747,-1.2736,-1.2723,-1.2707,-1.2695,-1.2683,-1.2665,-1.2648,-1.2634,-1.2629,-1.2624,-1.263,-1.2622,-1.2606,-1.2603,-1.26,-1.2601,-1.2629,-1.2629,-1.2641,-1.2641,-1.2641]},{"header":{"parameterUnit":"m.s-1","parameterCategory":1,"la1":30.2991,"la2":30.254,"lo1":-89.0895,"lo2":-89.0444,"dy":0.0017,"dx":0.0017,"nx":28,"ny":28,"refTime":"2025-09-04T21:00:00:Z","depth":0,"parameterNumber":3,"parameterNumberName":"V-component_of_WINDS"},"data":[0,0,0,0,0,0,0,0,0,0,0,0,0,0,0,0,0,0,0,0,0,0,0,0,0,0,0,0,0,0,0,0,0,0,0,0,0,0,0,0,0,0,0,0,0,0,0,0,0,0,0,0,0,0,0,0,0,0,2.4688,2.4687,0,2.4676,2.4676,2.4676,2.4722,2.4723,2.4724,2.4726,2.4709,2.4708,2.4706,0,0,0,0,0,0,0,0,0,0,0,0,0,2.4744,2.4742,2.4688,2.4687,2.4687,2.4676,2.4676,2.4676,2.4721,2.4723,2.4725,2.4726,2.471,2.4708,2.4706,0,0,0,0,0,0,0,0,0,0,0,0,0,2.4724,2.4742,2.4688,2.4709,2.4711,2.4676,2.4676,2.4676,2.4721,2.4723,2.4725,2.4727,2.4711,2.4708,2.4706,2.4649,0,0,2.4698,2.4697,0,0,0,0,0,0,0,0,2.4725,2.4722,2.4706,2.4707,2.4709,2.4703,2.469,2.4667,2.4721,2.4717,2.4726,2.4728,2.4705,2.4703,2.4696,2.4648,2.4648,2.4698,2.4696,2.4695,2.4694,0,0,0,0,0,0,0,2.4727,2.4723,2.4683,2.4705,2.4708,2.4717,2.4717,2.4686,2.47,2.4717,2.4721,2.4719,2.4706,2.4699,2.4696,2.4647,2.4698,2.4695,2.4694,2.4693,2.4551,2.4549,0,0,0,0,0,0,2.4726,2.4724,2.4683,2.4683,2.4723,2.4715,2.4714,2.4703,2.47,2.4702,2.4717,2.4721,2.4702,2.4699,2.4696,2.4629,2.4695,2.4693,2.4691,2.4553,2.4551,2.4548,0,0,0,0,0,0,2.4727,2.4722,2.4684,2.4704,2.47,2.4712,2.4698,2.4701,2.4694,2.47,2.4702,2.4707,2.4704,2.47,2.4661,2.4629,2.4691,2.4689,2.4556,2.4553,2.455,2.4494,0,0,0,0,0,0,2.4728,2.4722,2.4702,2.4703,2.4699,2.465,2.4696,2.47,2.469,2.4695,2.4691,2.4693,2.4705,2.4664,2.4658,2.4626,2.4687,2.4559,2.4555,2.4551,2.4499,2.4489,2.4481,0,0,0,0,0,2.473,2.4686,2.47,2.4695,2.4674,2.4648,2.4645,2.4662,2.4687,2.4666,2.467,2.4693,2.4634,2.466,2.4653,2.462,2.4561,2.4556,2.4551,2.4503,2.4491,2.4481,0,0,0,0,0,0,2.4678,2.4686,2.4703,2.4658,2.4652,2.4656,2.4629,2.4649,2.4635,2.464,2.4659,2.4658,2.4615,2.4614,2.4643,2.4565,2.4601,2.4595,2.4567,2.4556,2.4547,2.4547,2.4685,0,0,0,0,0,2.4662,2.4642,2.4649,2.4609,2.4605,2.4618,2.4607,2.462,2.4614,2.4612,2.4613,2.4605,2.4585,2.4571,2.4552,2.45,2.4498,2.4474,2.4465,2.4458,2.4451,2.4421,2.441,2.4532,2.4532,2.4532,0,0,2.4627,2.4629,2.4615,2.4598,2.4595,2.4572,2.4615,2.4589,2.4571,2.4607,2.457,2.4571,2.4563,2.4517,2.4496,2.4515,2.4417,2.4451,2.4445,2.4443,2.4415,2.4403,2.4393,2.4528,2.4529,2.453,0,0,2.4552,2.4552,2.4518,2.4514,2.451,2.4519,2.451,2.4511,2.4513,2.4477,2.4503,2.4482,2.4447,2.444,2.4432,2.4354,2.4374,2.4348,2.4301,2.4272,2.4262,2.4254,2.4224,2.4214,2.4342,2.4342,2.4342,0,2.4508,2.4476,2.4497,2.4469,2.446,2.4494,2.4458,2.4453,2.4442,2.4435,2.4456,2.4413,2.441,2.4361,2.4343,2.4336,2.4325,2.4347,2.4262,2.4254,2.4246,2.4218,2.4207,2.4338,2.4339,2.4339,2.4339,0,2.4422,2.4399,2.4372,2.4362,2.435,2.4319,2.4334,2.4319,2.4334,2.434,2.4302,2.43,2.4281,2.4271,2.4285,2.4224,2.4236,2.4259,2.4296,2.4231,2.4205,2.4195,2.4334,2.4335,2.4336,2.4337,0,0,2.4312,2.4315,2.4304,2.43,2.4298,2.428,2.4249,2.4232,2.4219,2.421,2.4184,2.4154,2.4175,2.4166,2.4179,2.4154,2.409,2.4181,2.4181,2.4162,2.4022,2.4003,2.399,2.4104,2.4103,2.4101,2.4022,0,2.4237,2.4186,2.4204,2.4151,2.4129,2.4161,2.4134,2.4129,2.4133,2.4114,2.412,2.4097,2.4129,2.4123,2.41,2.4103,2.4062,2.4109,2.4078,2.4076,2.4077,2.3977,2.3956,2.3882,2.4012,2.401,2.4009,0,2.4142,2.4131,2.4076,2.4077,2.4068,2.4044,2.403,2.4012,2.4006,2.4012,2.4002,2.402,2.3988,2.4027,2.3982,2.4014,2.4002,2.4002,2.3999,2.3995,2.4037,2.3968,2.3859,2.3846,2.3994,2.3995,2.3996,0,2.4064,2.4036,2.3999,2.3995,2.3996,2.3977,2.3977,2.3973,2.3962,2.3949,2.3942,2.3925,2.3915,2.3901,2.3914,2.3941,2.3867,2.3906,2.3868,2.3868,2.3849,2.385,2.3734,2.3845,2.3845,2.3845,2.3846,0,2.3977,2.3942,2.3965,2.3942,2.3903,2.3924,2.3884,2.3887,2.3883,2.386,2.3887,2.3864,2.3884,2.3862,2.3872,2.3833,2.3828,2.383,2.3833,2.3827,2.3826,2.3818,2.3823,2.3842,2.3843,2.3844,2.3844,0,2.3883,2.3898,2.3859,2.3864,2.3864,2.3835,2.3838,2.3816,2.3824,2.3794,2.3788,2.3799,2.3775,2.3788,2.3763,2.3769,2.3718,2.3728,2.372,2.3722,2.3682,2.3685,2.3556,2.3539,2.3662,2.3661,2.366,0,2.3826,2.3799,2.3802,2.3789,2.3787,2.3766,2.3755,2.3774,2.3761,2.3753,2.3732,2.3711,2.3695,2.3655,2.366,2.3641,2.365,2.3606,2.3647,2.3641,2.3647,2.3647,2.3644,2.3596,2.3595,2.3594,2.3593,0,2.3721,2.373,2.3714,2.37,2.3686,2.3676,2.3667,2.3655,2.3674,2.3658,2.3635,2.3623,2.3598,2.3576,2.356,2.3557,2.3577,2.358,2.357,2.3563,2.3558,2.3558,2.3695,2.3583,2.3584,2.3585,2.3585,2.3585,2.3643,2.362,2.3618,2.3599,2.3595,2.3587,2.3567,2.3572,2.3554,2.3536,2.3549,2.3521,2.3515,2.3495,2.349,2.3467,2.3485,2.347,2.3466,2.3462,2.3456,2.3564,2.3465,2.3465,2.3465,2.3465,2.3466,0,2.3538,2.3539,2.3521,2.3509,2.3493,2.3517,2.3508,2.3493,2.3469,2.3463,2.3447,2.342,2.3399,2.3402,2.3383,2.3364,2.3372,2.3358,2.3358,2.3357,2.3442,2.3452,2.3351,2.3351,2.3351,2.3351,2.3351,2.3351,2.3482,2.3445,2.3453,2.3414,2.3415,2.3389,2.3382,2.3374,2.3369,2.3338,2.3321,2.3325,2.3321,2.3302,2.3283,2.3285,2.3275,2.3257,2.3261,2.334,2.3351,2.3362,2.3371,2.3255,2.3255,2.3178,2.3177,2.3176]}]]